Regional Weather Roundup
Issued by NWS

Home | Current Version | Previous Version | Graphics & Text | Print | Product List | Glossary On
Versions: 1 2 3 4 5 6 7 8 9 10 11 12 13 14 15 16 17 18 19 20 21 22 23 24 25 26 27 28 29 30 31 32 33 34 35 36 37 38 39 40 41 42 43 44 45 46 47 48 49 50
000
ASUS45 KBOU 160907
RWRCO

WEATHER ROUNDUP FOR COLORADO
NATIONAL WEATHER SERVICE DENVER/BOULDER CO
200 AM MST MON JAN 16 2017

NOTE: "FAIR" INDICATES FEW OR NO CLOUDS BELOW 12000 FEET WITH NO
SIGNIFICANT WEATHER AND/OR OBSTRUCTIONS TO VISIBILITY.

COZ001>005-013-030-031-161000-
...NORTHWEST COLORADO...

CITY           SKY/WX    TMP DP  RH WIND       PRES   REMARKS
CRAIG          CLOUDY    17  13  84 W8        30.07R WCI   7
HAYDEN         CLOUDY    18  14  86 W7        30.04R VSB 1/4 WCI   8
MEEKER         FAIR      20  16  84 SW3       30.04R
MOUNT WERNER   NOT AVBL
STEAMBOAT SPGS CLOUDY    20  19  94 CALM      30.02R VSB 3/4
WALDEN           N/A    N/A N/A N/A CALM      29.99R
$$

COZ006>008-011-161000-
...WEST CENTRAL VALLEYS...

CITY           SKY/WX    TMP DP  RH WIND       PRES   REMARKS
GRAND JUNCTION MOCLDY    32  27  81 NE6       29.99R WCI  26
MONTROSE       LGT SNOW  31  31 100 CALM      29.99R FOG
EAGLE          LGT SNOW  28  26  92 CALM      29.98R FOG
RIFLE          CLOUDY    31  25  78 CALM      30.00R
DELTA          CLOUDY    35  33  94 NE6       29.96S WCI  30
NUCLA          CLOUDY    34  30  86 NW7       29.98S WCI  28
$$

COZ017>023-064>068-161000-
...SOUTHWEST COLORADO...

CITY           SKY/WX    TMP DP  RH WIND       PRES   REMARKS
DURANGO        CLOUDY    35  30  82 SW9       29.86R WCI  28
CORTEZ         CLOUDY    35  33  92 W9        29.91S WCI  28
PAGOSA SPRINGS LGT SNOW  33  33 100 CALM      29.87S
TELLURIDE      LGT SNOW  28  28 100 W9        29.92S WCI  19
WOLF CREEK PAS   N/A     23  23 100 N5        29.95R WCI  17
$$

COZ009-010-012-014-032>034-037-058>063-161000-
...CENTRAL COLORADO...

CITY           SKY/WX    TMP DP  RH WIND       PRES   REMARKS
ASPEN          CLOUDY    28  27  96 N5        29.92R FOG     WCI  23
BUENA VISTA    LGT SNOW  31  29  94 CALM      29.87S
COPPER MTN     SNOW      27  21  80 CALM      29.93S VSB 1/2
BERTHOUD PASS  NOT AVBL
COTTONWOOD PAS LGT SNOW  32  30  93 CALM      29.89R
GUNNISON       LGT SNOW  22  20  92 CALM      29.91S FOG
KREMMLING      LGT SNOW  27  23  86 CALM      29.97S
LEADVILLE      LGT SNOW  25  23  92 N7        29.88S FOG     WCI  17
MONARCH PASS   CLOUDY    23  21  93 MISG      30.01R
SALIDA         CLOUDY    33  32  96 CALM      29.95S
SUNLIGHT       CLOUDY    21  21 100 N3        29.98S FOG
WILKERSON PASS LGT SNOW N/A N/A N/A NE9G17    29.92F
$$

COZ069>075-161000-
...SAN LUIS VALLEY/SANGRE DE CRISTO MOUNTAINS...

CITY           SKY/WX    TMP DP  RH WIND       PRES   REMARKS
ALAMOSA        LGT SNOW  30  30 100 SE7       29.85R FOG     WCI  23
LA VETA PASS   LGT SNOW  25  23  93 S7        29.87S WCI  17
SAGUACHE       CLOUDY    34  32  93 NW13      29.85R WCI  25
$$

COZ035-036-038>040-161000-
...NORTHERN COLORADO FRONT RANGE...

CITY           SKY/WX    TMP DP  RH WIND       PRES   REMARKS
DENVER INTL AP LGT SNOW  30  27  88 NW10      29.95S FOG     WCI  21
DMNS CITY PARK   N/A     30  30  99 N8        29.97S WCI  23
AURORA         FLURRIES  28  28  99 NW12      29.96S WCI  18
FRONT RANGE AP CLOUDY    32  28  86 NW12      29.96R WCI  23
ERIE MUNI ARPT LGT SNOW  32  31  97 NW6       29.97S WCI  26
BOULDER MUN AP LGT SNOW  32  32 100 CALM      29.96F
CENTENNIAL     LGT SNOW  28  26  92 NW8       29.95S VSB 1   WCI  20
BROOMFIELD     LGT SNOW  32  32 100 N8        29.96S WCI  25
FORT COLLINS   FAIR      32  30  93 N7        29.98R WCI  26
LONGMONT       LGT SNOW  33  32  96 CALM      29.99S
$$

COZ041-046-047-076>085-087-088-161000-
...PIKES PEAK/PALMER DIVIDE AND SOUTHERN FOOTHILLS...

CITY           SKY/WX    TMP DP  RH WIND       PRES   REMARKS
COLO. SPRINGS  FLURRIES  32  25  75 NW24G31   29.88S WCI  19
A. F. ACADEMY  MIX PCPN  28  25  86 N21       29.87S WCI  15
SCHRIEVER AFB  NOT AVBL
ELLICOTT       LGT SNOW N/A N/A N/A N24       29.84F
FALCON         CLOUDY    29  23  79 N17G28    29.86S WCI  17
FORT CARSON    NOT AVBL
LIMON          LGT SNOW  27  26  96 N15       29.91R FOG     WCI  15
MONUMENT HILL  LGT SNOW  23  23 100 NW18      29.91S WCI   9
TRINIDAD       SNOW      31  30  96 CALM      29.87R VSB 1/2
$$

COZ042>045-048>051-090-091-161000-
...NORTHEAST COLORADO...

CITY           SKY/WX    TMP DP  RH WIND       PRES   REMARKS
GREELEY ARPT   FLURRIES  29  27  92 N8        29.99S WCI  21
AKRON          CLOUDY    27  25  92 NW10      29.93R FOG     WCI  17
BURLINGTON     CLOUDY    31  29  92 N12       29.90S WCI  22
WRAY           NOT AVBL
STERLING       LGT SNOW  32  30  93 CALM      29.95R
HOLYOKE        LGT SNOW  34  32  93 N7        29.95F WCI  28
FORT MORGAN    LGT SNOW  29  28  94 NW6       29.97R WCI  23
$$

COZ086-089-092>099-161000-
...SOUTHEAST COLORADO...

CITY           SKY/WX    TMP DP  RH WIND       PRES   REMARKS
PUEBLO         LGT SNOW  33  31  92 W5        29.88F FOG     WCI  29
LA JUNTA       LGT SNOW  32  31  96 NW5       29.90R FOG     WCI  27
LAMAR          LGT SNOW  32  31  96 NE3       29.88S VSB 3/4
SPRINGFIELD      N/A     29  29 100 N16       29.83S WCI  17
$$



USA.gov is the U.S. government's official web portal to all federal, state and local government web resources and services.